The Dalles, WA

3:18 PM PST on December 14, 2019 (GMT -0800)
Columbia Gorge Regional-The Dalles

Weather History for KDLS - October, 2019

Change the Weather History Date:

Saturday, October 12, 2019

  Actual Average Record
Temperature  
Mean Temperature 44 °F -  
Max Temperature 57 °F 67 °F 83 °F (1979)
Min Temperature 30 °F 44 °F 30 °F (2019)
Degree Days  
Heating Degree Days 22    
Moisture  
Dew Point 30 °F    
Average Humidity 60    
Maximum Humidity 82    
Minimum Humidity 34    
Precipitation  
Precipitation 0.00 in - - ()
Sea Level Pressure  
Sea Level Pressure 30.07 in    
Wind  
Wind Speed 0 mph (SSE)    
Max Wind Speed 5 mph    
Max Gust Speed -    
Visibility 10 miles    
Events      
Averages and records for this station are not official NWS values.
T = Trace of Precipitation, MM = Missing Value Source: NWS Daily Summary

Daily Weather History Graph

Daily Weather History Graph

Search for Another Location

Airport or City:

Astronomy

Oct. 12, 2019 Rise Set
Actual Time 7:16 AM PDT 6:24 PM PDT
Civil Twilight 6:47 AM PDT 6:54 PM PDT
Nautical Twilight 6:12 AM PDT 7:28 PM PDT
Astronomical Twilight 5:38 AM PDT 8:03 PM PDT
Moon 6:28 PM PDT (10/12) 5:51 AM PDT (10/12)
Length of Visible Light 12h 07m
Length of Day
11h 07m
Waxing Gibbous, 99% of the Moon is Illuminated
Oct 12
Waxing Gibbous
Oct 13
Full
Oct 21
Last Quarter
Oct 27
New
Nov 4
First Quarter

Hourly Weather History & Observations

Time (PDT) Temp. Windchill Dew Point Humidity Pressure Visibility Wind Dir Wind Speed Gust Speed Precip Events Conditions
12:53 AM 36.0 °F - 27.0 °F 70% 30.17 in 10.0 mi Calm Calm - N/A   Clear
1:53 AM 34.0 °F - 27.0 °F 75% 30.17 in 10.0 mi Calm Calm - N/A   Clear
2:53 AM 35.1 °F - 28.0 °F 76% 30.17 in 10.0 mi Calm Calm - N/A   Clear
3:53 AM 33.1 °F - 26.1 °F 75% 30.15 in 10.0 mi Calm Calm - N/A   Clear
4:53 AM 32.0 °F - 26.1 °F 79% 30.15 in 10.0 mi Calm Calm - N/A   Clear
5:53 AM 30.0 °F - 25.0 °F 82% 30.14 in 10.0 mi Calm Calm - N/A   Clear
6:53 AM 30.9 °F - 26.1 °F 82% 30.15 in 10.0 mi Calm Calm - N/A   Clear
7:53 AM 30.9 °F - 26.1 °F 82% 30.15 in 10.0 mi Calm Calm - N/A   Clear
8:53 AM 36.0 °F - 28.9 °F 76% 30.15 in 10.0 mi Calm Calm - N/A   Clear
9:53 AM 39.0 °F - 28.9 °F 67% 30.14 in 10.0 mi Calm Calm - N/A   Clear
10:53 AM 42.1 °F - 30.0 °F 62% 30.13 in 10.0 mi Calm Calm - N/A   Clear
11:53 AM 48.0 °F - 30.0 °F 50% 30.11 in 10.0 mi Calm Calm - N/A   Clear
12:53 PM 50.0 °F - 28.0 °F 43% 30.08 in 10.0 mi South 3.5 mph - N/A   Clear
1:53 PM 54.0 °F - 28.9 °F 38% 30.05 in 10.0 mi Calm Calm - N/A   Clear
2:53 PM 55.9 °F - 28.9 °F 36% 30.03 in 10.0 mi Calm Calm - N/A   Clear
3:53 PM 57.0 °F - 28.9 °F 34% 30.00 in 10.0 mi Calm Calm - N/A   Clear
4:53 PM 57.0 °F - 28.9 °F 34% 29.99 in 10.0 mi WSW 3.5 mph - N/A   Partly Cloudy
5:53 PM 57.0 °F - 30.0 °F 36% 29.98 in 10.0 mi Calm Calm - N/A   Clear
6:53 PM 53.1 °F - 36.0 °F 52% 29.98 in 10.0 mi SSW 3.5 mph - N/A   Clear
7:53 PM 51.1 °F - 36.0 °F 56% 29.97 in 10.0 mi Calm Calm - N/A   Clear
8:53 PM 50.0 °F - 34.0 °F 54% 29.96 in 10.0 mi East 3.5 mph - N/A   Mostly Cloudy
9:53 PM 48.9 °F - 36.0 °F 61% 29.96 in 10.0 mi Calm Calm - N/A   Overcast
10:53 PM 48.0 °F - 36.0 °F 63% 29.96 in 10.0 mi Calm Calm - N/A   Overcast
11:53 PM 46.0 °F 43.9 °F 34.0 °F 63% 29.95 in 10.0 mi ESE 4.6 mph - N/A   Mostly Cloudy